Jefferson, NC

6:22 AM EDT on October 16, 2019 (GMT -0400)
Ashe County

Weather History for KGEV - September, 2019

Change the Weather History Date:

Monday, September 16, 2019

  Actual Average Record
Temperature  
Mean Temperature 68 °F -  
Max Temperature 82 °F 74 °F 91 °F (2002)
Min Temperature 54 °F 50 °F 34 °F (1984)
Cooling Degree Days 3    
Growing Degree Days 18 (Base 50)    
Moisture  
Dew Point 54 °F    
Average Humidity 63    
Maximum Humidity 96    
Minimum Humidity 34    
Precipitation  
Precipitation 0.00 in - - ()
Sea Level Pressure  
Sea Level Pressure 30.20 in    
Wind  
Wind Speed 3 mph ()    
Max Wind Speed 9 mph    
Max Gust Speed 17 mph    
Visibility 10.0 miles    
Events      
Averages and records for this station are not official NWS values.
T = Trace of Precipitation, MM = Missing Value Source: Averaged Metar Reports

Daily Weather History Graph

Daily Weather History Graph

Search for Another Location

Airport or City:

Astronomy

Sep. 16, 2019 Rise Set
Actual Time 7:08 AM EDT 7:31 PM EDT
Civil Twilight 6:42 AM EDT 7:57 PM EDT
Nautical Twilight 6:12 AM EDT 8:27 PM EDT
Astronomical Twilight 5:41 AM EDT 8:58 PM EDT
Moon 9:09 PM EDT 9:11 AM EDT
Length of Visible Light 13h 14m
Length of Day
12h 23m
Waning Gibbous, 94% of the Moon is Illuminated
Sep 16
Waning Gibbous
Sep 21
Last Quarter
Sep 28
New
Oct 5
First Quarter
Oct 13
Full

Hourly Weather History & Observations

Time (EDT) Temp. Dew Point Humidity Pressure Visibility Wind Dir Wind Speed Gust Speed Precip Events Conditions
12:15 AM 60.4 °F 56.5 °F 87% 30.25 in 10.0 mi Calm Calm - N/A   Clear
12:55 AM 59.0 °F 56.5 °F 91% 30.25 in 10.0 mi WSW 5.8 mph - N/A   Clear
1:15 AM 60.1 °F 55.8 °F 86% 30.25 in 10.0 mi Calm Calm - N/A   Clear
1:35 AM 58.8 °F 55.9 °F 90% 30.24 in 10.0 mi Calm Calm - N/A   Clear
1:55 AM 58.8 °F 55.9 °F 90% 30.24 in 10.0 mi Calm Calm - N/A   Clear
2:15 AM 57.6 °F 55.8 °F 94% 30.24 in 10.0 mi Calm Calm - N/A   Clear
2:35 AM 57.9 °F 55.8 °F 92% 30.24 in 10.0 mi Calm Calm - N/A   Clear
3:15 AM 59.2 °F 55.0 °F 86% 30.23 in 10.0 mi WSW 3.5 mph - N/A   Clear
3:35 AM 58.1 °F 54.9 °F 89% 30.23 in 10.0 mi Calm Calm - N/A   Clear
4:15 AM 56.8 °F 54.7 °F 92% 30.23 in 10.0 mi WSW 4.6 mph - N/A   Clear
4:35 AM 57.9 °F 54.1 °F 87% 30.23 in 10.0 mi WSW 4.6 mph - N/A   Clear
5:15 AM 56.7 °F 54.3 °F 92% 30.22 in 10.0 mi Calm Calm - N/A   Clear
5:35 AM 55.9 °F 53.8 °F 92% 30.22 in 10.0 mi Calm Calm - N/A   Clear
5:55 AM 54.9 °F 53.6 °F 96% 30.22 in 10.0 mi Calm Calm - N/A   Clear
6:15 AM 56.3 °F 54.5 °F 94% 30.23 in 10.0 mi WSW 3.5 mph - N/A   Clear
6:35 AM 56.3 °F 54.7 °F 94% 30.23 in 10.0 mi Calm Calm - N/A   Clear
7:15 AM 56.3 °F 54.5 °F 94% 30.23 in 10.0 mi Calm Calm - N/A   Clear
7:35 AM 56.8 °F 55.4 °F 95% 30.24 in 10.0 mi Calm Calm - N/A   Clear
7:55 AM 56.5 °F 55.4 °F 96% 30.24 in 10.0 mi Calm Calm - N/A   Clear
8:15 AM 57.7 °F 56.3 °F 95% 30.24 in 10.0 mi Calm Calm - N/A   Clear
9:35 AM 66.7 °F 61.5 °F 83% 30.25 in 10.0 mi Calm Calm - N/A   Clear
9:55 AM 68.7 °F 62.4 °F 80% 30.24 in 10.0 mi Calm Calm - N/A   Clear
10:15 AM 72.7 °F 54.5 °F 53% 30.25 in 10.0 mi Calm Calm - N/A   Clear
10:35 AM 75.7 °F 50.9 °F 42% 30.25 in 10.0 mi WSW 4.6 mph - N/A   Clear
11:15 AM 77.4 °F 48.2 °F 36% 30.24 in 10.0 mi WSW 9.2 mph - N/A   Scattered Clouds
11:35 AM 77.7 °F 48.2 °F 35% 30.24 in 10.0 mi WSW 9.2 mph - N/A   Clear
11:55 AM 78.1 °F 50.7 °F 38% 30.23 in 10.0 mi WSW 9.2 mph - N/A   Clear
12:15 PM 78.8 °F 49.6 °F 36% 30.22 in 10.0 mi WSW 6.9 mph - N/A   Clear
12:35 PM 79.7 °F 50.0 °F 35% 30.22 in 10.0 mi WSW 8.1 mph 16.1 mph N/A   Clear
1:15 PM 81.1 °F 50.4 °F 34% 30.20 in 10.0 mi WSW 4.6 mph - N/A   Clear
1:35 PM 81.5 °F 50.9 °F 34% 30.20 in 10.0 mi WSW 4.6 mph - N/A   Clear
1:55 PM 81.5 °F 50.7 °F 34% 30.19 in 10.0 mi WSW 5.8 mph - N/A   Clear
2:15 PM 81.1 °F 51.6 °F 36% 30.18 in 10.0 mi WSW 4.6 mph - N/A   Clear
2:35 PM 82.2 °F 51.6 °F 35% 30.18 in 10.0 mi WSW 5.8 mph - N/A   Clear
3:15 PM 81.7 °F 51.4 °F 35% 30.17 in 10.0 mi WSW 9.2 mph - N/A   Clear
3:55 PM 81.9 °F 51.8 °F 35% 30.16 in 10.0 mi WSW 8.1 mph - N/A   Clear
4:15 PM 81.9 °F 51.6 °F 35% 30.15 in 10.0 mi WSW 5.8 mph - N/A   Clear
4:35 PM 82.4 °F 52.2 °F 35% 30.15 in 10.0 mi WSW 8.1 mph 17.3 mph N/A   Clear
5:15 PM 81.1 °F 52.9 °F 37% 30.14 in 10.0 mi WSW 5.8 mph - N/A   Mostly Cloudy
5:35 PM 79.2 °F 53.1 °F 40% 30.14 in 10.0 mi WSW 6.9 mph - N/A   Mostly Cloudy
5:55 PM 79.2 °F 53.8 °F 41% 30.14 in 10.0 mi WSW 5.8 mph - N/A   Overcast
6:15 PM 79.0 °F 53.8 °F 42% 30.14 in 10.0 mi WSW 5.8 mph - N/A   Overcast
6:35 PM 78.4 °F 53.8 °F 42% 30.14 in 10.0 mi WSW 8.1 mph - N/A   Overcast
7:15 PM 77.9 °F 53.8 °F 43% 30.14 in 10.0 mi WSW 6.9 mph - N/A   Mostly Cloudy
7:35 PM 77.0 °F 54.1 °F 45% 30.14 in 10.0 mi WSW 6.9 mph - N/A   Clear
7:55 PM 76.5 °F 54.7 °F 47% 30.14 in 10.0 mi WSW 5.8 mph - N/A   Scattered Clouds
8:15 PM 75.6 °F 55.0 °F 49% 30.14 in 10.0 mi WSW 4.6 mph - N/A   Scattered Clouds
9:15 PM 73.6 °F 55.8 °F 54% 30.15 in 10.0 mi WSW 4.6 mph - N/A   Scattered Clouds
9:35 PM 73.4 °F 55.9 °F 54% 30.15 in 10.0 mi WSW 4.6 mph - N/A   Clear
10:35 PM 72.5 °F 56.3 °F 57% 30.16 in 10.0 mi Calm Calm - N/A   Clear
11:15 PM 69.3 °F 56.7 °F 64% 30.16 in 10.0 mi Calm Calm - N/A   Scattered Clouds
11:35 PM 70.2 °F 57.2 °F 63% 30.15 in 10.0 mi Calm Calm - N/A   Mostly Cloudy
11:55 PM 67.5 °F 57.4 °F 70% 30.15 in 10.0 mi Calm Calm - N/A   Mostly Cloudy